Regional Weather Roundup
Issued by NWS Upton, NY

Current Version | Previous Version | Text Only | Print | Product List | Glossary On
Versions: 1 2 3 4 5 6 7 8 9 10 11 12 13 14 15 16 17 18 19 20 21 22 23 24 25 26 27 28 29 30 31 32 33 34 35 36 37 38 39 40 41 42 43 44 45 46 47 48 49 50
000
ASUS41 KOKX 030004
RWROKX

REGIONAL WEATHER ROUNDUP
NATIONAL WEATHER SERVICE NEW YORK NY
800 PM EDT SUN AUG 02 2015

NOTE: "FAIR" INDICATES FEW OR NO CLOUDS BELOW 12,000 FEET WITH NO
SIGNIFICANT WEATHER AND/OR OBSTRUCTIONS TO VISIBILITY.

NYZ071-072-176-178-NJZ106-104-030100-
NEW YORK CITY METRO AREA


CITY           SKY/WX    TMP DP  RH WIND       PRES   REMARKS
CENTRAL PARK   CLEAR     81  61  50 CALM      29.90S
LAGUARDIA APRT PTCLDY    81  61  50 S14G20    29.87R
KENNEDY INTL   PTCLDY    80  66  62 S16       29.88S
NEWARK/LIBERTY PTCLDY    86  50  28 SW12      29.86S
BRNX BOT. GARD   N/A     79  63  57 CALM      29.90R
TETERBORO      CLEAR     82  58  43 S7        29.86R
$$

NYZ177-179-078>081-030100-
LONG ISLAND NEW YORK

CITY           SKY/WX    TMP DP  RH WIND       PRES   REMARKS
FARMINGDALE    CLEAR     79  65  62 S12       29.89R
ISLIP          PTCLDY    78  66  66 S9        29.87S
SHIRLEY        CLEAR     78  68  71 S8        29.90S
WESTHAMPTON    CLEAR     76  69  79 S6        29.91S
MONTAUK POINT    N/A     76  69  79 VRB3      29.91S
$$

NYZ052-065-067-030100-
HUDSON VALLEY

CITY           SKY/WX    TMP DP  RH WIND       PRES   REMARKS
WHITE PLAINS   PTCLDY    78  59  51 CALM      29.88R
NEWBURGH         N/A     81  57  44 SW8       29.90R
MONTGOMERY     CLEAR     77  59  53 SW5       29.88R
POUGHKEEPSIE   CLEAR     83  55  38 SW5       29.86R
ALBANY         PTCLDY    80  55  42 S8        29.84R
$$

NJZ001-105-106-008-010-013-015-019>022-104-030100-
NEW JERSEY

CITY           SKY/WX    TMP DP  RH WIND       PRES   REMARKS
NEWARK/LIBERTY PTCLDY    86  50  28 SW12      29.86S
TETERBORO      CLEAR     82  58  43 S7        29.86R
CALDWELL       CLEAR     84  53  34 W7        29.88R
MORRISTOWN     CLEAR     84  54  34 W6        29.88R
SOMERVILLE     CLEAR     81  55  40 CALM      29.86R
SUSSEX         CLEAR     77  59  53 CALM      29.90R
ANDOVER          N/A     73  63  70 CALM      29.91R
TRENTON        CLEAR     82  54  37 W5        29.88R
MILLVILLE      MOCLDY    80  64  58 SW3       29.90S
ATLANTIC CITY  MOCLDY    80  64  58 S6        29.90S
WRIGHTSTOWN    NOT AVBL
TOMS RIVER       N/A     81  63  54 S6        29.90R
BELMAR         CLEAR     81  64  57 S3        29.89R
$$

PAZ047>061-062-071-030100-
EASTERN PENNSYLVANIA

CITY           SKY/WX    TMP DP  RH WIND       PRES   REMARKS
PHILADELPHIA   MOCLDY    85  55  35 SW8       29.90R
ALLENTOWN      CLEAR     78  59  51 SW8       29.90R
SCRANTON       CLEAR     80  57  45 SW7       29.90R
$$

CTZ002-004>006-009-010-012-RIZ004-006-007-MAZ004-011-015-030100-
SOUTHERN NEW ENGLAND
 IN CT

CITY           SKY/WX    TMP DP  RH WIND       PRES   REMARKS
BRADLEY INTL   PTCLDY    80  57  45 S7        29.86R
HARTFORD       CLEAR     80  58  46 S7        29.86R
DANBURY        CLEAR     77  60  55 S6        29.90R
WTRBRY/OXFORD  PTCLDY    75  59  57 S5        29.92R
BRIDGEPORT     CLEAR     81  62  52 S9        29.87R
MERIDEN        CLEAR     79  58  48 S5        29.87S
NEW HAVEN      CLEAR     76  67  73 S7        29.88R
CHESTER        FAIR      75  66  73 S7        29.90S
GROTON         CLEAR     72  67  84 S8        29.88S
WILLIMANTIC    CLEAR     79  59  50 S5        29.88S

 IN RI

CITY           SKY/WX    TMP DP  RH WIND       PRES   REMARKS
PROVIDENCE     PTCLDY    76  59  55 S9        29.89S
BLOCK ISLAND     N/A     73  70  88 S9        29.91S
WESTERLY       CLEAR     74  66  76 S8        29.90F

 IN MA

CITY           SKY/WX    TMP DP  RH WIND       PRES   REMARKS
BOSTON         PTCLDY    82  55  39 SW15      29.86R
WORCESTER      CLEAR     74  58  57 SW9       29.92R
WESTFIELD      CLEAR     76  58  53 S6        29.87R
PROVINCETOWN   CLEAR     73  57  56 SW15      29.88S
NANTUCKET      CLEAR     71  65  81 S7        29.91F
$$

ANZ330-335-338-340-345-350-353-355-030100-
COASTAL MARINE OBSERVATIONS


STATION/POSITION TIME  SKY/WX   TEMP    WIND        PRES    VSBY  WAVE
                                AIR SEA DIR/SP/G                  HT/PER
                 (UTC)          (F)     (DEG/KT/KT) (MB)    (MI)  (FT/S)
NY HARB ENTRANCE 2250            79 79  180/ 10/ 14 1011.6          2/ 7
4S FIRE IS       NOT AVBL
20S FIRE ISLAND  2250            78 78  180/  8/ 10 1012.0          3/ 8
GREAT SOUTH BAY  2300            77 81  210/ 10/ 12   N/A
23SW MTP         2350            77 76  200/ 10/ 12 1011.9          3/ 8
HUDSON CANYON    NOT AVBL
KINGS POINT      2300            80 73  200/ 11/ 12 1010.7
EXECUTION ROCKS  2300            79     190/  4/  8   N/A
CENTRAL LI SOUND NOT AVBL
EASTERN LI SOUND 2300            77 69  170/  8/ 10   N/A
ROBBINS REEF     2300            77     180/ 14/ 15 1010.1
$$


>>>>>>>>>>>>>>>>>>>>>>>>>>>> KEY <<<<<<<<<<<<<<<<<<<<<<<<<<<
>                                                          <
>     SKY/WX - SKY CONDITION/PRESENT WEATHER               <
>     TMP    - TEMPERATURE IN FAHRENHEIT                   <
>     DP     - DEWPOINT IN FAHRENHEIT                      <
>     RH     - RELATIVE HUMIDITY IN PERCENT                <
>     WIND   - DIRECTION AND SPEED IN MPH                  <
>     PRES   - MEAN SEA LEVEL PRESSURE IN INCHES OF HG     <
>     WCI    - WIND CHILL INDEX                            <
>     VSB    - VISIBILITY IN MILES                         <
>     HX     - HEAT INDEX                                  <
>     TC     - TEMPERATURE IN CELSIUS                      <
>     VRB    - VARIABLE WIND DIRECTION                     <
>                                                          <
>>>>>>>>>>>>>>>>>>>>>>>>>>>> KEY <<<<<<<<<<<<<<<<<<<<<<<<<<<




USA.gov is the U.S. government's official web portal to all federal, state and local government web resources and services.